Find Starlink 6050

NORAD ID: 56458 Int'l Des: 2023-064 Owner: SPXS Country: US Constellation: starlink operational
LEOCIRCULAR

Live Position

Loading 3D Globe...

About Starlink 6050

Description loading...

Upcoming Passes

Passes for default location (London). Set your location on the main map for personalized predictions.

Altitude History

Loading altitude history...

Two-Line Element Set

1 56458U 23064L 26126.63315465 -.00047792 00000-0 -40645-2 0 9995
2 56458 69.9993 358.4332 0002425 122.9758 237.1634 14.97953429163920
Epoch: May 6, 2026 • Age: 8 hours

Current Status

Altitude 600.0 km
Velocity 7.56 km/s
Sub-Earth Point -68.62°S, 82.54°E
Launch Date May 10, 2023
Age 2.9 years
Type internet

Technical Details

Classification Payload
Mass 305.00 kg
Dry Mass 290.00 kg
Total Mass 305.00 kg
Length 0.20 m
Diameter 2.80 m
Span 9.00 m
Shape Box + pan
Manufacturer SPXS
Bus Type Starlink
Phase Status In Orbit
Owner/State SPXS/US

Most Searched